Hourly Data Report for August 17, 2021

TORONTO CITY
ONTARIO
Current Station Operator: ECCC - MSC

43°40'00.000" N
79°24'00.000" W
112.50 m
6158355
71508
XTO

Download Data

Hourly Data (August 2021)
Hourly Data Report for August 17, 2021
TIME
LST
Temp Definition
°C
Dew Point Definition
°C
Rel Hum Definition
%
Precip. Amount Definition
mm

Wind Dir Definition
10's deg

Wind Spd Definition
km/h
Visibility Definition
km
Stn Press Definition
kPa
Hmdx Definition


Wind Chill Definition


Weather Definition


00:00 22.2 18.8 81 0.0       100.49 29   LegendNANA
01:00 21.9 18.4 80 0.0       100.46 28   LegendNANA
02:00 21.7 18.6 83 0.0       100.41 28   LegendNANA
03:00 21.8 18.8 83 0.0       100.41 28   LegendNANA
04:00 21.6 18.6 83 0.0       100.42 28   LegendNANA
05:00 21.7 19.0 85 0.0       100.42 28   LegendNANA
06:00 21.8 19.0 84 0.0       100.45 29   LegendNANA
07:00 22.3 19.2 83 0.0       100.48 29   LegendNANA
08:00 23.0 19.8 82 0.0       100.51 30   LegendNANA
09:00 23.6 19.8 79 0.0       100.51 31   LegendNANA
10:00 24.3 20.4 79 0.0       100.51 32   LegendNANA
11:00 26.3 20.4 70 0.0       100.48 34   LegendNANA
12:00 26.5 20.1 68 0.0       100.47 34   LegendNANA
13:00 27.4 20.4 66 0.0       100.44 35   LegendNANA
14:00 26.6 20.5 69 0.0       100.44 35   LegendNANA
15:00 26.3 20.4 70 0.0       100.40 34   LegendNANA
16:00 26.5 20.0 68 0.0       100.36 34   LegendNANA
17:00 26.5 20.4 69 0.0       100.35 34   LegendNANA
18:00 25.4 21.2 78 0.0       100.39 34   LegendNANA
19:00 24.5 21.6 84 0.0       100.40 33   LegendNANA
20:00 24.0 21.6 86 0.0       100.43 33   LegendNANA
21:00 24.0 20.7 82 0.0       100.45 32   LegendNANA
22:00 23.6 21.1 86 0.0       100.50 32   LegendNANA
23:00 23.0 20.7 87 0.0       100.53 31   LegendNANA

Notes on Data Quality.

Legend

  • E = Estimated
  • M = Missing
  • NA = Not Available*
  • [empty] = Indicates an unobserved value
Date modified: